User: anonymous   Login
Location: Unspecified
(0.0000°N, 0.0000°E)
Time: 12:43:57
(UTC+00:00)
Language:

Quikscat - Orbit

View from above orbital plane
View from above orbital plane
View from above satellite
View from above satellite

Ground track
Ground track

The orbit data is extracted from the following two-line orbital elements,

1 25789U 99034A   18200.59349182 -.00000026 +00000-0 +71803-5 0  9991
2 25789 098.6051 027.9248 0000654 051.3325 308.7914 14.27326893993882
Epoch (UTC): 19 July 2018 14:14:37
Eccentricity: 0.0000654
inclination: 98.6051°
perigee height: 800 km
apogee height: 801 km
right ascension of ascending node: 27.9248°
argument of perigee: 51.3325°
revolutions per day: 14.27326893
mean anomaly at epoch: 308.7914°
orbit number at epoch: 99388

The dashed part of the orbit path shows where the satellite is in the earth's shadow,  

DLR